Weather in Soniachne

Ukraine / Sumi District     50°11′08″N   35°02′22″E
temp.,
°C
wind,
m/s
gust,
m/s
humid.,
%
clouds,
%
prec.,
mm/h
press.,
hPa
HPBL,
m
27 october, wed
wed2700:00+2ssw49495 0.0 1030144
03:00+1ssw48508 0.0 1029132
06:000ssw410533 0.0 1028174
09:00+2ssw512590 0.0 1027307
12:00+8sw69490 0.0 1026798
15:00+10sw675528 0.0 10241105
18:00+9wsw5761100 0.0 1024318
21:00+6w3478100 0.0 102473
28 october, thu
thu2800:00+6w33796 0.0 102432
03:00+4w2281100 0.0 102424
06:00+4wsw3485100 0.0 102357
09:00+7wsw4977100 0.0 1023275
12:00+9sw61270100 0.2 1022492
15:00+11w51067100 0.2 1020750
18:00+10wnw4983100 0.1 1021489
21:00+9nw498599 0.1 1022418
29 october, fri
fri2900:00+9wnw258920 0.0 1023139
03:00+6nw359540 0.0 102492
06:00+5n33945 0.0 102654
09:00+6nne36805 0.0 1028198
12:00+11ene45630 0.0 1028695
15:00+12ene345611 0.0 10281042
18:00+8e33730 0.0 102923
21:00+6ese36850 0.0 103186
30 october, sat
sat3000:00+5ese34890 0.0 103254
03:00+4se33920 0.0 103237
06:00+4se33930 0.0 103232
09:00+6se24850 0.0 1033122
12:00+11sse34590 0.0 1033625
15:00+13sse34480 0.0 1032977
18:00+9se33600 0.0 103224
21:00+7se33660 0.0 103229
31 october, sun
sun3100:00+6se33720 0.0 103229
03:00+5se22780 0.0 103320
05:00+4ese33850 0.0 103224
08:00+6ese36790 0.0 1032146
11:00+12se56530 0.0 1030661
14:00+13ese45440 0.0 1028859
17:00+9e35630 0.0 102764
20:00+7ese38700 0.0 1027136